Probability
0 0 0 0 0 0 0 0 0 0 0 0 0 0 0 0 0 0 0 0 0 0 0 0 0 0 0 0 0 0 0 1 2 3 3 3 3 2 1 0 0 0 0 0
0 0 0 0 0 0 0 0 0 0 0 0 0 0 0 0 0 0 0 0 0 0 0 0 0 0 0 0 0 0 0 1 2 3 3 3 3 2 1 0 0 0 0 0
0 0 0 0 0 0 0 0 0 0 0 0 0 0 0 0 0 0 0 0 0 0 0 0 0 0 0 0 0 0 0 0 1 3 3 3 3 2 1 0 0 0 0 0
0 0 0 0 0 0 0 0 0 0 0 0 0 0 0 0 0 0 0 0 0 0 0 0 0 0 0 0 0 0 0 0 1 3 3 3 3 1 0 0 0 0 0 0
0 0 0 0 0 0 0 0 0 0 0 0 0 0 0 0 0 0 0 0 0 0 0 0 0 0 0 0 0 0 0 1 2 3 3 3 2 1 0 0 0 0 0 0
0 0 0 0 0 0 0 0 0 0 0 0 0 0 0 0 0 0 0 0 0 0 0 0 0 1 1 1 0 0 0 1 2 3 3 3 2 1 0 0 0 0 0 0
0 0 0 0 0 0 0 0 0 0 0 0 0 0 0 0 0 0 0 0 0 0 0 0 0 1 2 1 0 0 0 1 2 3 3 3 2 1 0 0 0 0 0 0
0 0 0 0 0 0 0 0 0 0 0 0 0 0 0 0 0 0 0 0 0 0 0 0 0 1 1 1 0 0 0 0 1 3 3 3 1 0 0 0 0 0 0 0
0 0 0 0 0 0 0 0 0 0 0 0 0 0 0 0 0 0 0 0 0 0 0 0 0 0 0 0 0 0 0 0 1 2 3 2 1 0 0 0 0 0 0 0
0 0 0 0 0 0 0 0 0 0 0 0 0 0 0 0 0 0 0 0 0 0 0 0 0 0 0 0 0 0 0 0 0 1 2 1 0 0 0 0 0 0 0 0
0 0 0 0 0 0 0 0 0 0 0 0 0 0 0 0 0 0 0 0 0 0 0 0 0 0 0 0 0 0 0 0 0 0 0 0 0 0 0 0 0 0 0 0
0 0 0 0 0 0 0 0 0 0 0 0 0 0 0 0 0 0 0 0 0 0 0 0 0 0 0 0 0 0 0 0 0 0 0 0 0 0 0 0 0 0 0 0
0 0 0 0 0 0 0 0 0 0 0 0 0 0 0 0 0 0 0 0 0 0 0 0 0 0 0 0 0 0 0 0 0 0 0 0 0 0 0 0 0 0 0 0
0 0 0 0 0 0 0 0 0 0 0 0 0 0 0 0 0 0 0 0 0 0 0 0 0 0 0 0 0 0 0 0 0 0 0 0 0 0 0 0 0 0 0 0
0 0 0 0 0 0 0 0 0 0 0 0 0 0 0 0 0 0 0 0 0 0 0 0 0 0 0 0 0 0 0 0 0 0 0 0 0 0 0 0 0 0 0 0
0 0 0 0 0 0 0 0 0 0 0 0 0 0 0 0 0 0 0 0 0 0 0 0 0 0 0 0 0 0 0 0 0 0 0 0 0 0 0 0 0 0 0 0
0 0 0 0 0 0 0 0 0 0 0 0 0 0 0 0 0 0 0 0 0 0 0 0 0 0 0 0 0 0 0 0 0 0 0 0 0 0 0 0 0 0 0 0
0 0 0 0 0 0 0 0 0 0 0 0 0 0 0 0 0 0 0 0 0 0 0 0 0 0 0 0 0 0 0 0 0 0 0 0 0 0 0 0 0 0 0 0
0 0 0 0 0 0 0 0 0 0 0 0 0 0 0 0 0 0 0 0 0 0 0 0 0 0 0 0 0 0 0 0 0 0 0 0 0 0 0 0 0 0 0 0
0 0 0 0 0 0 0 0 0 0 0 0 0 0 0 0 0 0 0 0 0 0 0 0 0 0 0 0 0 0 0 0 0 0 0 0 0 0 0 0 0 0 0 0
0 0 0 0 0 0 0 0 0 0 0 0 0 0 0 0 0 0 0 0 0 0 0 0 0 0 0 0 0 0 0 0 0 0 0 0 0 0 0 0 0 0 0 0
0 0 0 0 0 0 0 0 0 0 0 0 0 0 0 0 0 0 0 0 0 0 0 0 0 0 0 0 0 0 0 0 0 0 0 0 0 0 0 0 0 0 0 0
0 0 0 0 0 0 0 0 0 0 0 0 0 0 0 0 0 0 0 0 0 0 0 0 0 0 0 0 0 0 0 0 0 0 0 0 0 0 0 0 0 0 0 0
0 0 0 0 0 0 0 0 0 0 0 0 0 0 0 0 0 0 0 0 0 0 0 0 0 0 0 0 0 0 0 0 0 0 0 0 0 0 0 0 0 0 0 0
0 0 0 0 0 0 0 0 0 0 0 0 0 0 0 0 0 0 0 0 0 0 0 0 0 0 0 0 0 0 0 0 0 0 0 0 0 0 0 0 0 0 0 0
0 0 0 0 0 0 0 0 0 0 0 0 0 0 0 0 0 0 0 0 0 0 0 0 0 0 0 0 0 0 0 0 0 0 0 0 0 0 0 0 0 0 0 0
Wind_Speed
6 4 5 5 7 6 5 6 7 5 0 2 8 13 12 9 8 8 7 6 5 4 4 4 3 3 3 2 1 1 1 1 1 1 1 2 2 2 2 2 3 3 3 4
4 7 6 4 3 4 5 7 7 5 1 3 9 14 14 11 8 6 4 4 3 3 4 4 3 2 2 2 2 1 2 2 2 2 2 2 3 3 3 3 3 4 4 4
7 1 2 3 3 5 6 6 5 6 7 7 7 10 7 3 3 3 2 2 2 4 4 4 3 2 2 1 1 1 2 2 3 3 2 2 2 2 2 3 3 4 4 4
7 4 3 4 5 4 5 2 4 5 4 4 2 7 5 4 5 5 4 4 3 3 3 3 2 2 2 2 1 2 3 3 4 3 3 4 3 4 4 4 4 5 5 5
4 4 4 6 5 4 1 3 3 5 5 6 4 6 8 5 5 5 5 4 4 4 3 3 2 2 2 2 2 3 3 4 4 4 4 5 5 4 4 4 5 5 5 5
5 1 3 3 1 2 1 1 4 4 2 5 7 7 7 3 5 5 5 4 4 4 3 3 2 2 2 2 2 3 4 5 5 4 5 6 6 6 5 5 5 5 4 4
6 7 4 2 2 2 2 1 1 1 3 7 4 5 7 1 3 4 5 5 4 3 3 2 1 2 2 2 3 4 5 5 5 5 5 6 6 6 6 6 5 5 4 4
5 6 10 7 5 4 5 4 3 4 4 2 1 6 6 2 4 4 4 3 3 2 1 1 1 2 2 3 3 4 5 5 5 5 5 6 6 5 5 6 5 6 5 5
5 3 5 7 4 4 4 5 1 1 3 4 6 6 3 4 4 4 2 2 2 2 2 2 1 2 2 3 3 4 5 5 5 5 6 6 6 5 6 6 6 5 5 5
2 2 5 4 3 3 3 2 3 3 3 5 6 6 4 5 4 3 3 2 2 2 2 1 1 2 2 3 3 4 4 5 6 5 5 6 5 6 5 5 7 7 7 6
3 3 4 5 8 9 5 3 4 4 4 4 5 4 1 4 3 2 2 2 2 2 2 2 2 2 3 3 4 4 5 5 5 5 5 6 6 6 6 6 7 7 7 7
4 2 4 6 4 3 6 7 7 5 6 5 4 7 1 2 2 2 1 2 3 3 2 2 2 3 3 4 4 4 5 5 5 5 5 6 6 6 6 7 7 7 7 7
5 4 3 3 2 2 4 6 7 4 3 5 6 8 1 1 1 1 2 3 3 3 3 2 2 3 4 4 4 5 5 5 5 5 5 6 6 6 6 6 6 7 7 7
4 5 8 8 4 5 5 7 7 7 6 8 11 12 9 6 5 5 5 5 4 4 3 3 3 3 4 4 5 5 5 5 5 5 5 6 6 6 6 6 6 7 7 8
3 5 7 10 10 6 7 10 12 14 13 11 12 14 13 9 8 7 6 6 5 4 4 4 4 4 4 4 4 5 5 5 5 5 6 6 6 6 6 6 6 7 8 9
4 4 5 9 10 11 12 13 15 16 16 18 18 20 13 11 9 8 7 6 5 5 5 4 4 4 4 4 5 5 5 5 5 6 6 7 6 6 6 6 7 7 8 8
4 4 4 7 7 7 13 15 16 14 14 14 19 18 9 9 8 6 6 5 5 5 4 5 4 4 4 4 5 5 5 6 6 6 7 6 6 6 7 8 7 8 8 8
6 5 4 4 4 13 9 5 11 14 15 14 12 9 8 7 6 5 3 2 3 4 5 5 4 4 4 5 5 5 5 5 6 7 7 6 6 7 7 7 7 8 8 8
9 7 5 4 7 9 7 5 5 7 10 7 8 8 6 5 5 4 2 2 3 3 4 4 4 5 5 5 5 6 6 6 6 7 7 7 7 8 8 8 8 8 7 8
7 6 6 5 6 8 4 1 1 1 6 2 3 5 5 3 4 4 4 4 4 4 4 4 4 5 5 5 5 6 6 6 6 7 7 7 7 7 8 8 8 7 7 8
5 6 9 9 8 8 3 0 1 4 5 2 1 2 3 2 4 4 5 5 5 5 5 5 5 5 5 5 5 6 7 7 6 7 7 7 7 7 7 7 7 7 7 8
7 6 7 6 8 9 1 2 3 3 1 3 4 3 3 4 5 5 6 6 6 6 6 6 5 6 5 5 5 7 8 7 6 6 7 8 7 7 7 7 7 7 7 7
7 7 5 7 6 2 1 2 2 2 2 3 3 4 4 5 6 6 6 6 6 6 6 5 6 7 6 5 5 7 7 6 6 7 8 8 8 7 6 7 7 6 6 5
4 3 3 5 6 4 3 3 2 3 3 4 4 4 4 6 6 7 6 6 6 6 6 6 6 7 7 6 6 6 7 6 7 8 8 8 7 7 7 6 6 5 5 5
4 3 4 6 6 5 4 3 3 4 4 5 4 4 5 5 7 7 6 6 6 6 5 5 6 7 7 7 6 6 6 6 7 7 7 7 7 7 7 6 5 6 5 6
4 4 5 6 4 4 4 4 5 5 4 4 5 6 5 5 6 6 6 6 6 6 5 6 6 7 7 7 6 6 5 6 7 7 7 6 6 6 6 6 7 8 8 11
Wind_Direction
187 225 219 212 214 263 318 305 293 295 165 257 265 273 274 265 248 240 235 221 204 192 165 147 157 161 161 164 183 221 239 266 274 266 270 266 261 271 277 264 270 274 274 271
195 231 236 247 243 256 269 277 282 293 38 302 279 279 274 256 241 232 228 218 198 167 157 148 160 166 175 178 189 235 242 257 265 248 240 236 241 242 244 251 253 252 259 262
220 167 182 219 233 249 255 258 278 302 328 272 274 286 255 205 182 172 205 198 186 174 165 158 173 179 172 176 198 272 273 271 266 255 247 257 262 263 259 261 251 245 249 252
240 222 210 225 232 233 264 307 304 311 316 294 306 296 273 211 188 183 197 196 184 155 152 160 167 172 185 200 197 251 264 266 262 259 250 248 252 254 255 249 248 247 243 245
227 182 196 226 231 226 256 21 311 286 274 284 243 248 274 210 201 192 182 175 159 149 154 165 176 195 206 200 206 232 255 260 258 255 253 250 252 251 254 259 258 255 246 237
251 221 206 228 281 247 105 295 267 249 260 262 223 214 273 226 193 164 154 149 145 149 164 174 183 197 218 216 222 241 257 261 260 254 253 250 252 256 261 265 259 254 250 242
220 212 189 186 179 173 185 170 309 256 223 247 203 210 251 291 82 125 146 151 148 148 158 171 197 216 234 243 252 253 260 265 265 262 258 254 248 248 249 255 256 256 255 252
212 208 181 183 189 171 197 193 187 228 251 286 206 233 247 162 112 103 112 133 138 152 173 194 219 243 252 255 259 267 268 271 269 266 266 258 248 241 245 250 253 252 249 247
217 216 143 172 190 173 179 213 252 287 292 277 250 245 226 151 135 138 147 165 184 213 226 234 246 263 276 283 277 276 278 281 276 268 269 266 253 244 248 254 255 255 252 251
255 219 164 147 177 250 258 191 147 178 225 255 256 237 234 160 169 173 184 199 223 239 255 272 279 278 282 287 289 291 281 277 274 268 269 277 267 255 251 255 258 256 256 254
222 197 166 162 197 193 186 203 193 203 223 231 264 257 57 133 150 174 192 204 242 264 275 275 270 277 290 301 298 292 289 284 281 274 274 275 272 262 257 255 257 258 256 255
198 191 222 214 202 216 202 198 181 188 224 218 249 266 338 107 115 131 210 262 268 263 272 280 286 296 299 297 294 294 288 281 281 279 280 278 274 265 260 259 259 263 263 260
167 174 207 219 211 218 230 223 214 214 223 221 230 256 244 66 25 310 280 282 285 282 289 294 293 296 299 297 295 296 292 284 287 289 286 284 281 268 263 263 263 266 268 267
159 192 209 217 208 172 210 222 214 206 221 238 235 254 272 285 289 292 294 294 292 289 291 295 294 293 294 295 300 303 305 303 296 292 289 285 282 276 268 266 265 265 268 267
168 226 237 254 266 249 229 223 219 220 225 235 252 257 265 277 285 288 291 295 298 302 301 298 296 298 301 306 307 310 307 306 305 299 291 285 280 279 280 275 271 268 268 270
189 235 251 255 250 253 253 237 230 231 235 243 257 264 266 274 281 284 290 300 301 302 307 307 309 308 303 305 309 309 307 305 304 298 290 288 288 288 288 285 282 276 273 271
192 203 228 253 252 266 253 234 231 232 228 231 245 254 268 272 276 286 294 296 302 311 321 320 312 304 305 310 312 306 302 304 301 293 291 295 297 294 291 291 289 283 278 274
196 200 225 255 249 241 244 219 224 235 240 237 246 259 261 267 281 285 286 312 338 342 332 326 320 316 312 311 311 302 298 297 295 294 296 299 302 301 298 296 291 287 284 278
203 199 220 226 244 265 265 246 230 235 249 239 251 266 279 292 300 290 331 5 332 324 319 313 313 311 308 307 307 305 299 295 294 297 300 303 303 301 298 294 291 291 289 288
203 197 221 230 240 243 249 231 254 240 261 252 252 272 284 311 292 285 338 345 332 326 320 314 312 307 302 300 302 300 295 292 294 297 298 298 298 296 295 292 291 291 288 288
196 209 223 236 247 257 273 306 97 216 257 349 335 309 315 271 256 294 327 327 323 320 315 314 309 300 295 300 304 296 293 290 292 297 300 300 298 296 293 292 289 292 292 293
201 205 211 216 236 249 210 146 193 243 355 7 351 342 324 303 306 311 310 309 313 314 311 313 311 303 301 300 300 295 291 292 297 300 300 301 300 299 302 299 295 290 292 294
210 207 209 210 227 265 184 230 267 330 323 330 330 329 322 308 304 305 304 306 309 309 310 311 306 302 301 301 297 295 297 304 307 305 302 301 301 299 300 299 298 298 297 296
248 234 243 261 266 280 277 292 316 325 317 320 318 314 312 303 302 305 305 304 305 304 307 308 305 302 303 306 302 299 305 310 305 302 302 303 302 302 303 301 299 301 300 299
259 269 260 264 279 293 277 296 314 315 309 307 307 306 301 299 297 297 299 300 301 303 304 304 300 298 300 303 301 302 309 312 304 301 301 304 303 301 301 299 296 294 290 292
252 248 246 255 274 271 286 321 322 310 308 315 312 305 303 297 295 300 299 299 300 301 301 300 299 298 300 303 301 306 310 309 307 305 304 302 303 302 302 304 307 303 299 306